This is the latest recevied weather packets stored in our database for station/object N8SHA. If no packets are shown the sender has not sent any weather packets the latest 10 day(s).
| Time | Temp. | Humidity | Pressure | Rain* | Wind** | Luminosity | Snow |
|---|---|---|---|---|---|---|---|
| 1777480334 | 10° C | 87% | 1012.2 hPa | 0 mm | - | 315 W/m² | - |
| 1777480029 | 10° C | 87% | 1012 hPa | 0 mm | - | 441 W/m² | - |
| 1777479727 | 10° C | 85% | 1012.2 hPa | 0 mm | - | 320 W/m² | - |
| 1777479424 | 10° C | 85% | 1012.1 hPa | 0 mm | - | 318 W/m² | - |
| 1777479120 | 9.44° C | 86% | 1012.2 hPa | 0 mm | - | 289 W/m² | - |
| 1777478817 | 9.44° C | 86% | 1012.2 hPa | 0 mm | - | 249 W/m² | - |
| 1777478514 | 9.44° C | 86% | 1012.2 hPa | 0 mm | - | 193 W/m² | - |
| 1777478211 | 9.44° C | 86% | 1012.4 hPa | 0 mm | - | 303 W/m² | - |
| 1777477907 | 8.89° C | 86% | 1012.6 hPa | 0 mm | - | 238 W/m² | - |
| 1777477602 | 9.44° C | 88% | 1012.6 hPa | 0 mm | - | 227 W/m² | - |
| 1777477299 | 8.89° C | 88% | 1012.3 hPa | 0 mm | - | 250 W/m² | - |
| 1777476995 | 9.44° C | 89% | 1012.4 hPa | 0 mm | - | 261 W/m² | - |
| 1777476694 | 8.89° C | 89% | 1012.6 hPa | 0 mm | - | 276 W/m² | - |
| 1777476389 | 8.89° C | 90% | 1012.4 hPa | 0 mm | - | 253 W/m² | - |
| 1777476087 | 8.89° C | 91% | 1012.2 hPa | 0 mm | - | 260 W/m² | - |
| 1777475781 | 8.33° C | 91% | 1012.2 hPa | 0 mm | - | 251 W/m² | - |
| 1777475478 | 8.33° C | 91% | 1012.3 hPa | 0 mm | - | 275 W/m² | - |
| 1777475174 | 8.33° C | 92% | 1012.4 hPa | 0 mm | - | 293 W/m² | - |
| 1777474870 | 8.33° C | 93% | 1012.4 hPa | 0 mm | - | 231 W/m² | - |
| 1777474566 | 7.78° C | 93% | 1012.5 hPa | 0 mm | - | 231 W/m² | - |
| 1777474263 | 7.78° C | 94% | 1012.3 hPa | 0 mm | - | 210 W/m² | - |
| 1777473960 | 7.78° C | 94% | 1012.4 hPa | 0 mm | - | 171 W/m² | - |
| 1777473658 | 7.78° C | 95% | 1012.5 hPa | 0 mm | - | 151 W/m² | - |
| 1777473354 | 7.78° C | 95% | 1012.6 hPa | 0 mm | - | 138 W/m² | - |
| 1777473050 | 7.22° C | 95% | 1012.8 hPa | 0 mm | - | 102 W/m² | - |
* Rain latest hour (hover to see other rain measurements)
** Current wind speed in m/s (hover to see current wind gust speed)